Tracking 20621 objects as of 30-Mar-2020
HD Live streaming from Space Station
objects crossing your sky now

COSMOS 1176 COOLANT

Track COSMOS 1176 COOLANT now!
10-day predictions


NORAD ID: 27568
Int'l Code: 1980-034E
Perigee: 837.7 km
Apogee: 908.4 km
Inclination: 64.8 °
Period: 102.3 minutes
Semi major axis: 7244 km
RCS: 0.012 m2 (small)
Launch date: April 29, 1980
Source: Commonwealth of Independent States (former USSR) (CIS)
Launch site: TYURATAM MISSILE AND SPACE COMPLEX (TTMTR)

Note: This is SATELLITE DEBRIS
aabbcc
Your satellite tracking list
Your tracking list is empty




NASA's NSSDC Master Catalog

Two Line Element Set (TLE):
1 27568U 80034E   20083.67387774 -.00000027  00000-0  39704-4 0  9992
2 27568  64.8226 199.7937 0048818 227.4768 132.2175 14.08099135910919
Source of the keplerian elements: AFSPC